,,,PA_Meas_PMT16A,,PR_Meas_QMR101_102,,RH_Meas_QMH101,,SR_Meas_QMS101,,TA_Meas_QMH101,,GenWind,,GenWind,
date,time,status,PA,status,PR,status,RH,status,SR,status,TA,status,DirAvg,status,SpdAvg,
2014-04-16, 00:00:04,VALID,1011.6,VALID,0,INVALID,109.735,VALID,0,VALID,22.8562,VALID,333,VALID,0,
2014-04-16, 00:01:04,VALID,1011.6,VALID,0,INVALID,109.742,VALID,0,VALID,22.8155,VALID,333,VALID,0,
2014-04-16, 00:02:04,VALID,1011.61,VALID,0,INVALID,109.78,VALID,0,VALID,22.8368,VALID,333,VALID,0,
2014-04-16, 00:03:04,VALID,1011.65,VALID,0,INVALID,109.788,VALID,0.112112,VALID,22.8368,VALID,333,VALID,0,
2014-04-16, 00:04:04,VALID,1011.63,VALID,0,INVALID,109.841,VALID,0,VALID,22.8545,VALID,333,VALID,0,
2014-04-16, 00:05:04,VALID,1011.66,VALID,0,INVALID,109.925,VALID,0.112112,VALID,22.9129,VALID,333,VALID,0,
2014-04-16, 00:06:04,VALID,1011.65,VALID,0,INVALID,109.971,VALID,0.112112,VALID,22.9926,VALID,333,VALID,0,
2014-04-16, 00:07:04,VALID,1011.64,VALID,0,INVALID,110.032,VALID,0,VALID,23.0121,VALID,333,VALID,0,
2014-04-16, 00:08:04,VALID,1011.65,VALID,0,INVALID,110.063,VALID,0,VALID,23.0316,VALID,333,VALID,0,
2014-04-16, 00:09:04,VALID,1011.62,VALID,0,INVALID,110.124,VALID,0,VALID,23.0511,VALID,333,VALID,0,
2014-04-16, 00:10:04,VALID,1011.61,VALID,0,INVALID,110.131,VALID,0,VALID,23.0705,VALID,333,VALID,0,
2014-04-16, 00:11:04,VALID,1011.59,VALID,0,INVALID,110.154,VALID,0.112112,VALID,23.09,VALID,333,VALID,0,
2014-04-16, 00:12:04,VALID,1011.58,VALID,0,INVALID,110.154,VALID,0,VALID,23.0705,VALID,333,VALID,0,
2014-04-16, 00:13:04,VALID,1011.59,VALID,0,INVALID,110.169,VALID,0.112112,VALID,23.0705,VALID,333,VALID,0,
2014-04-16, 00:14:04,VALID,1011.57,VALID,0,INVALID,110.177,VALID,0.112112,VALID,23.0688,VALID,333,VALID,0,
2014-04-16, 00:15:04,VALID,1011.55,VALID,0,INVALID,110.146,VALID,0.112112,VALID,23.0705,VALID,333,VALID,0,
2014-04-16, 00:16:04,VALID,1011.53,VALID,0,INVALID,110.169,VALID,0,VALID,23.0705,VALID,333,VALID,0,
2014-04-16, 00:17:04,VALID,1011.53,VALID,0,INVALID,110.146,VALID,0.112112,VALID,23.0705,VALID,333,VALID,0,
2014-04-16, 00:18:04,VALID,1011.49,VALID,0,INVALID,110.192,VALID,0.112112,VALID,23.0493,VALID,333,VALID,0,
2014-04-16, 00:19:04,VALID,1011.46,VALID,0,INVALID,110.223,VALID,0,VALID,23.0493,VALID,333,VALID,0,
2014-04-16, 00:20:04,VALID,1011.49,VALID,0,INVALID,110.268,VALID,0,VALID,23.0705,VALID,333,VALID,0,
2014-04-16, 00:21:04,VALID,1011.49,VALID,0,INVALID,110.284,VALID,0.112112,VALID,23.0511,VALID,333,VALID,0,
2014-04-16, 00:22:04,VALID,1011.45,VALID,0,INVALID,110.299,VALID,0,VALID,23.0705,VALID,333,VALID,0,
2014-04-16, 00:23:04,VALID,1011.43,VALID,0,INVALID,110.322,VALID,0,VALID,23.0705,VALID,333,VALID,0,
2014-04-16, 00:24:04,VALID,1011.45,VALID,0,INVALID,110.291,VALID,0,VALID,23.0493,VALID,333,VALID,0,
2014-04-16, 00:25:04,VALID,1011.45,VALID,0,INVALID,110.299,VALID,0,VALID,23.0298,VALID,333,VALID,0,
2014-04-16, 00:26:04,VALID,1011.41,VALID,0,INVALID,110.291,VALID,0,VALID,23.0298,VALID,333,VALID,0,
2014-04-16, 00:27:04,VALID,1011.39,VALID,0,INVALID,110.314,VALID,0,VALID,23.0316,VALID,333,VALID,0,
2014-04-16, 00:28:04,VALID,1011.38,VALID,0,INVALID,110.284,VALID,0,VALID,23.0316,VALID,333,VALID,0,
2014-04-16, 00:29:04,VALID,1011.36,VALID,0,INVALID,110.261,VALID,0,VALID,23.0121,VALID,333,VALID,0,
2014-04-16, 00:30:04,VALID,1011.36,VALID,0,INVALID,110.253,VALID,0,VALID,22.9926,VALID,333,VALID,0,
2014-04-16, 00:31:04,VALID,1011.35,VALID,0,INVALID,110.215,VALID,0,VALID,22.9926,VALID,333,VALID,0,
2014-04-16, 00:32:04,VALID,1011.32,VALID,0,INVALID,110.253,VALID,0,VALID,22.9536,VALID,333,VALID,0,
2014-04-16, 00:33:04,VALID,1011.32,VALID,0,INVALID,110.261,VALID,0,VALID,22.9342,VALID,333,VALID,0,
2014-04-16, 00:34:04,VALID,1011.32,VALID,0,INVALID,110.253,VALID,0,VALID,22.9147,VALID,333,VALID,0,
2014-04-16, 00:35:04,VALID,1011.27,VALID,0,INVALID,110.268,VALID,0,VALID,22.9147,VALID,333,VALID,0,
2014-04-16, 00:36:04,VALID,1011.3,VALID,0,INVALID,110.291,VALID,0,VALID,22.8952,VALID,333,VALID,0,
2014-04-16, 00:37:04,VALID,1011.27,VALID,0,INVALID,110.299,VALID,0,VALID,22.8757,VALID,333,VALID,0,
2014-04-16, 00:38:04,VALID,1011.26,VALID,0,INVALID,110.307,VALID,0,VALID,22.8562,VALID,333,VALID,0,
2014-04-16, 00:39:04,VALID,1011.23,VALID,0,INVALID,110.329,VALID,0,VALID,22.8368,VALID,333,VALID,0,
2014-04-16, 00:40:04,VALID,1011.22,VALID,0,INVALID,110.337,VALID,0,VALID,22.8173,VALID,333,VALID,0,
2014-04-16, 00:41:04,VALID,1011.2,VALID,0,INVALID,110.345,VALID,0,VALID,22.7978,VALID,333,VALID,0,
2014-04-16, 00:42:04,VALID,1011.17,VALID,0,INVALID,110.329,VALID,0,VALID,22.7783,VALID,333,VALID,0,
2014-04-16, 00:43:04,VALID,1011.15,VALID,0,INVALID,110.322,VALID,0,VALID,22.7588,VALID,333,VALID,0,
2014-04-16, 00:44:04,VALID,1011.14,VALID,0,INVALID,110.352,VALID,0,VALID,22.7588,VALID,333,VALID,0,
2014-04-16, 00:45:04,VALID,1011.12,VALID,0,INVALID,110.337,VALID,0,VALID,22.7394,VALID,333,VALID,0,
2014-04-16, 00:46:04,VALID,1011.11,VALID,0,INVALID,110.375,VALID,0,VALID,22.7588,VALID,333,VALID,0,
2014-04-16, 00:47:04,VALID,1011.1,VALID,0,INVALID,110.398,VALID,0,VALID,22.7394,VALID,333,VALID,0,
2014-04-16, 00:48:04,VALID,1011.08,VALID,0,INVALID,110.436,VALID,0,VALID,22.7394,VALID,333,VALID,0,
2014-04-16, 00:49:04,VALID,1011.06,VALID,0,INVALID,110.467,VALID,0,VALID,22.7588,VALID,333,VALID,0,
2014-04-16, 00:50:04,VALID,1011.05,VALID,0,INVALID,110.451,VALID,0,VALID,22.7588,VALID,333,VALID,0,
2014-04-16, 00:51:04,VALID,1011.02,VALID,0,INVALID,110.512,VALID,0,VALID,22.7588,VALID,333,VALID,0,
2014-04-16, 00:52:04,VALID,1010.99,VALID,0,INVALID,110.505,VALID,0,VALID,22.7588,VALID,333,VALID,0,
2014-04-16, 00:53:04,VALID,1010.99,VALID,0,INVALID,110.551,VALID,0,VALID,22.7376,VALID,333,VALID,0,
2014-04-16, 00:54:04,VALID,1010.96,VALID,0,INVALID,110.528,VALID,0,VALID,22.7783,VALID,333,VALID,0,
2014-04-16, 00:55:04,VALID,1010.95,VALID,0,INVALID,110.581,VALID,0,VALID,22.7783,VALID,333,VALID,0,
2014-04-16, 00:56:04,VALID,1010.93,VALID,0,INVALID,110.589,VALID,0,VALID,22.7978,VALID,333,VALID,0,
2014-04-16, 00:57:04,VALID,1010.91,VALID,0,INVALID,110.619,VALID,0,VALID,22.7978,VALID,333,VALID,0,
2014-04-16, 00:58:04,VALID,1010.89,VALID,0,INVALID,110.642,VALID,0,VALID,22.7978,VALID,333,VALID,0,
2014-04-16, 00:59:04,VALID,1010.89,VALID,0,INVALID,110.627,VALID,0,VALID,22.7783,VALID,333,VALID,0,
2014-04-16, 01:00:04,VALID,1010.84,VALID,0,INVALID,110.627,VALID,0,VALID,22.7588,VALID,333,VALID,0,
2014-04-16, 01:01:04,VALID,1010.83,VALID,0,INVALID,110.612,VALID,0,VALID,22.7588,VALID,333,VALID,0,
2014-04-16, 01:02:04,VALID,1010.81,VALID,0,INVALID,110.619,VALID,0,VALID,22.7394,VALID,333,VALID,0,
2014-04-16, 01:03:04,VALID,1010.8,VALID,0,INVALID,110.627,VALID,0,VALID,22.7394,VALID,333,VALID,0,
2014-04-16, 01:04:04,VALID,1010.79,VALID,0,INVALID,110.65,VALID,0,VALID,22.7394,VALID,333,VALID,0,
2014-04-16, 01:05:04,VALID,1010.75,VALID,0,INVALID,110.65,VALID,0,VALID,22.7199,VALID,333,VALID,0,
2014-04-16, 01:06:04,VALID,1010.75,VALID,0,INVALID,110.65,VALID,0,VALID,22.6809,VALID,333,VALID,0,
2014-04-16, 01:07:04,VALID,1010.73,VALID,0,INVALID,110.604,VALID,0,VALID,22.642,VALID,333,VALID,0,
2014-04-16, 01:08:04,VALID,1010.7,VALID,0,INVALID,110.596,VALID,0,VALID,22.6225,VALID,333,VALID,0,
2014-04-16, 01:09:04,VALID,1010.7,VALID,0,INVALID,110.589,VALID,0,VALID,22.603,VALID,333,VALID,0,
2014-04-16, 01:10:04,VALID,1010.7,VALID,0,INVALID,110.589,VALID,0,VALID,22.6047,VALID,333,VALID,0,
2014-04-16, 01:11:04,VALID,1010.69,VALID,0,INVALID,110.604,VALID,0,VALID,22.564,VALID,333,VALID,0,
2014-04-16, 01:12:04,VALID,1010.68,VALID,0,INVALID,110.596,VALID,0,VALID,22.564,VALID,333,VALID,0,
2014-04-16, 01:13:04,VALID,1010.67,VALID,0,INVALID,110.619,VALID,0,VALID,22.5446,VALID,333,VALID,0,
2014-04-16, 01:14:04,VALID,1010.64,VALID,0,INVALID,110.65,VALID,0,VALID,22.5446,VALID,333,VALID,0,
2014-04-16, 01:15:04,VALID,1010.64,VALID,0,INVALID,110.642,VALID,0,VALID,22.5056,VALID,333,VALID,0,
2014-04-16, 01:16:04,VALID,1010.57,VALID,0,INVALID,110.657,VALID,0.112112,VALID,22.4861,VALID,333,VALID,0,
2014-04-16, 01:17:04,VALID,1010.57,VALID,0,INVALID,110.673,VALID,0,VALID,22.4472,VALID,333,VALID,0,
2014-04-16, 01:18:04,VALID,1010.55,VALID,0,INVALID,110.665,VALID,0,VALID,22.4472,VALID,333,VALID,0,
2014-04-16, 01:19:04,VALID,1010.57,VALID,0,INVALID,110.673,VALID,0,VALID,22.4277,VALID,333,VALID,0,
2014-04-16, 01:20:04,VALID,1010.57,VALID,0,INVALID,110.665,VALID,0,VALID,22.4082,VALID,333,VALID,0,
2014-04-16, 01:21:04,VALID,1010.57,VALID,0,INVALID,110.688,VALID,0.112112,VALID,22.4082,VALID,333,VALID,0,
2014-04-16, 01:22:04,VALID,1010.58,VALID,0,INVALID,110.703,VALID,0,VALID,22.4065,VALID,333,VALID,0,
2014-04-16, 01:23:04,VALID,1010.57,VALID,0,INVALID,110.779,VALID,0,VALID,22.4277,VALID,333,VALID,0,
2014-04-16, 01:24:04,VALID,1010.59,VALID,0,INVALID,110.756,VALID,0,VALID,22.4294,VALID,333,VALID,0,
2014-04-16, 01:25:04,VALID,1010.59,VALID,0,INVALID,110.779,VALID,0,VALID,22.4082,VALID,333,VALID,0,
2014-04-16, 01:26:04,VALID,1010.6,VALID,0,INVALID,110.779,VALID,0,VALID,22.4082,VALID,333,VALID,0,
2014-04-16, 01:27:04,VALID,1010.6,VALID,0,INVALID,110.833,VALID,0,VALID,22.4082,VALID,333,VALID,0,
2014-04-16, 01:28:04,VALID,1010.6,VALID,0,INVALID,110.81,VALID,0,VALID,22.4082,VALID,333,VALID,0,
2014-04-16, 01:29:04,VALID,1010.6,VALID,0,INVALID,110.825,VALID,0,VALID,22.4082,VALID,333,VALID,0,
2014-04-16, 01:30:04,VALID,1010.56,VALID,0,INVALID,110.825,VALID,0,VALID,22.3887,VALID,333,VALID,0,
2014-04-16, 01:31:04,VALID,1010.52,VALID,0,INVALID,110.825,VALID,0,VALID,22.3693,VALID,333,VALID,0,
2014-04-16, 01:32:04,VALID,1010.51,VALID,0,INVALID,110.848,VALID,0,VALID,22.3498,VALID,333,VALID,0,
2014-04-16, 01:33:04,VALID,1010.47,VALID,0,INVALID,110.84,VALID,0,VALID,22.3481,VALID,333,VALID,0,
2014-04-16, 01:34:04,VALID,1010.46,VALID,0,INVALID,110.863,VALID,0,VALID,22.3303,VALID,333,VALID,0,
2014-04-16, 01:35:04,VALID,1010.44,VALID,0,INVALID,110.871,VALID,0,VALID,22.2702,VALID,333,VALID,0,
2014-04-16, 01:36:04,VALID,1010.37,VALID,0,INVALID,110.894,VALID,0,VALID,22.2719,VALID,333,VALID,0,
2014-04-16, 01:37:04,VALID,1010.39,VALID,0,INVALID,110.863,VALID,0,VALID,22.2524,VALID,333,VALID,0,
2014-04-16, 01:38:04,VALID,1010.4,VALID,0,INVALID,110.848,VALID,0,VALID,22.2134,VALID,333,VALID,0,
2014-04-16, 01:39:04,VALID,1010.4,VALID,0,INVALID,110.863,VALID,0,VALID,22.2134,VALID,333,VALID,0,
2014-04-16, 01:40:04,VALID,1010.39,VALID,0,INVALID,110.825,VALID,0,VALID,22.2134,VALID,333,VALID,0,
2014-04-16, 01:41:04,VALID,1010.36,VALID,0,INVALID,110.894,VALID,0,VALID,22.2134,VALID,333,VALID,0,
2014-04-16, 01:42:04,VALID,1010.37,VALID,0,INVALID,110.901,VALID,0,VALID,22.194,VALID,333,VALID,0,
2014-04-16, 01:43:04,VALID,1010.36,VALID,0,INVALID,110.894,VALID,0,VALID,22.194,VALID,333,VALID,0,
2014-04-16, 01:44:04,VALID,1010.34,VALID,0,INVALID,110.886,VALID,0,VALID,22.194,VALID,333,VALID,0,
2014-04-16, 01:45:04,VALID,1010.34,VALID,0,INVALID,110.894,VALID,0,VALID,22.2346,VALID,333,VALID,0,
2014-04-16, 01:46:04,VALID,1010.35,VALID,0,INVALID,110.901,VALID,0,VALID,22.2134,VALID,333,VALID,0,
2014-04-16, 01:47:04,VALID,1010.34,VALID,0,INVALID,110.924,VALID,0,VALID,22.2134,VALID,333,VALID,0,
2014-04-16, 01:48:04,VALID,1010.36,VALID,0,INVALID,110.932,VALID,0,VALID,22.194,VALID,333,VALID,0,
2014-04-16, 01:49:04,VALID,1010.35,VALID,0,INVALID,110.932,VALID,0,VALID,22.194,VALID,333,VALID,0,
2014-04-16, 01:50:04,VALID,1010.37,VALID,0,INVALID,110.932,VALID,0,VALID,22.194,VALID,333,VALID,0,
2014-04-16, 01:51:04,VALID,1010.34,VALID,0,INVALID,110.962,VALID,0,VALID,22.155,VALID,333,VALID,0,
2014-04-16, 01:52:04,VALID,1010.36,VALID,0,INVALID,110.962,VALID,0,VALID,22.1745,VALID,333,VALID,0,
2014-04-16, 01:53:05,VALID,1010.38,VALID,0,INVALID,110.962,VALID,0,VALID,22.2134,VALID,333,VALID,0,
2014-04-16, 01:54:05,VALID,1010.39,VALID,0,INVALID,110.955,VALID,0,VALID,22.2329,VALID,333,VALID,0,
2014-04-16, 01:55:05,VALID,1010.37,VALID,0,INVALID,110.97,VALID,0,VALID,22.2524,VALID,333,VALID,0,
2014-04-16, 01:56:05,VALID,1010.36,VALID,0,INVALID,111,VALID,0,VALID,22.2524,VALID,333,VALID,0,
2014-04-16, 01:57:05,VALID,1010.34,VALID,0,INVALID,111,VALID,0,VALID,22.2312,VALID,333,VALID,0,
2014-04-16, 01:58:05,VALID,1010.31,VALID,0,INVALID,111.016,VALID,0,VALID,22.2134,VALID,333,VALID,0,
2014-04-16, 01:59:05,VALID,1010.26,VALID,0,INVALID,111.016,VALID,0,VALID,22.2329,VALID,333,VALID,0,
2014-04-16, 02:00:05,VALID,1010.26,VALID,0,INVALID,111.039,VALID,0,VALID,22.1923,VALID,333,VALID,0,
2014-04-16, 02:01:05,VALID,1010.26,VALID,0,INVALID,111.046,VALID,0,VALID,22.194,VALID,333,VALID,0,
2014-04-16, 02:02:05,VALID,1010.23,VALID,0,INVALID,111.046,VALID,0,VALID,22.1745,VALID,333,VALID,0,
2014-04-16, 02:03:05,VALID,1010.24,VALID,0,INVALID,111.023,VALID,0,VALID,22.155,VALID,333,VALID,0,
2014-04-16, 02:04:05,VALID,1010.24,VALID,0,INVALID,111,VALID,0,VALID,22.1355,VALID,333,VALID,0,
2014-04-16, 02:05:05,VALID,1010.2,VALID,0,INVALID,111.016,VALID,0,VALID,22.1161,VALID,333,VALID,0,
2014-04-16, 02:06:05,VALID,1010.17,VALID,0,INVALID,111.016,VALID,0,VALID,22.1355,VALID,333,VALID,0,
2014-04-16, 02:07:05,VALID,1010.18,VALID,0,INVALID,111.023,VALID,0,VALID,22.1161,VALID,333,VALID,0,
2014-04-16, 02:08:05,VALID,1010.17,VALID,0,INVALID,111.023,VALID,0,VALID,22.1161,VALID,333,VALID,0,
2014-04-16, 02:09:05,VALID,1010.19,VALID,0,INVALID,111.039,VALID,0,VALID,22.1177,VALID,333,VALID,0,
2014-04-16, 02:10:05,VALID,1010.17,VALID,0,INVALID,111.054,VALID,0,VALID,22.0966,VALID,333,VALID,0,
2014-04-16, 02:11:05,VALID,1010.16,VALID,0,INVALID,111.039,VALID,0,VALID,22.0966,VALID,333,VALID,0,
2014-04-16, 02:12:05,VALID,1010.13,VALID,0,INVALID,111.016,VALID,0,VALID,22.1177,VALID,333,VALID,0,
2014-04-16, 02:13:05,VALID,1010.14,VALID,0,INVALID,111.061,VALID,0.112112,VALID,22.1144,VALID,333,VALID,0,
2014-04-16, 02:14:05,VALID,1010.14,VALID,0,INVALID,111.061,VALID,0.112112,VALID,22.1144,VALID,333,VALID,0,
2014-04-16, 02:15:05,VALID,1010.14,VALID,0,INVALID,111.054,VALID,0.112112,VALID,22.0949,VALID,333,VALID,0,
2014-04-16, 02:16:05,VALID,1010.11,VALID,0,INVALID,111.084,VALID,0.112112,VALID,22.0754,VALID,333,VALID,0,
2014-04-16, 02:17:05,VALID,1010.1,VALID,0,INVALID,111.077,VALID,0.112112,VALID,22.0771,VALID,333,VALID,0,
2014-04-16, 02:18:05,VALID,1010.14,VALID,0,INVALID,111.039,VALID,0.112112,VALID,22.0754,VALID,333,VALID,0,
2014-04-16, 02:19:05,VALID,1010.1,VALID,0,INVALID,111.039,VALID,0.112112,VALID,22.0949,VALID,333,VALID,0,
2014-04-16, 02:20:05,VALID,1010.11,VALID,0,INVALID,111.061,VALID,0.112112,VALID,22.0754,VALID,333,VALID,0,
2014-04-16, 02:21:05,VALID,1010.11,VALID,0,INVALID,111.061,VALID,0.112112,VALID,22.0754,VALID,333,VALID,0,
2014-04-16, 02:22:05,VALID,1010.1,VALID,0,INVALID,111.061,VALID,0.112112,VALID,22.0754,VALID,333,VALID,0,
2014-04-16, 02:23:05,VALID,1010.08,VALID,0,INVALID,111.061,VALID,0.112112,VALID,22.0754,VALID,333,VALID,0,
2014-04-16, 02:24:05,VALID,1010.05,VALID,0,INVALID,111.054,VALID,0.112112,VALID,22.0754,VALID,333,VALID,0,
2014-04-16, 02:25:05,VALID,1010.06,VALID,0,INVALID,111.115,VALID,0.112112,VALID,22.0543,VALID,333,VALID,0,
2014-04-16, 02:26:05,VALID,1010.03,VALID,0,INVALID,111.115,VALID,0.112112,VALID,22.0365,VALID,333,VALID,0,
2014-04-16, 02:27:05,VALID,1010.05,VALID,0,INVALID,111.1,VALID,0.112112,VALID,22.0382,VALID,333,VALID,0,
2014-04-16, 02:28:05,VALID,1010.07,VALID,0,INVALID,111.069,VALID,0,VALID,21.9992,VALID,333,VALID,0,
2014-04-16, 02:29:05,VALID,1010.05,VALID,0,INVALID,111.084,VALID,0,VALID,21.9797,VALID,333,VALID,0,
2014-04-16, 02:30:05,VALID,1010.01,VALID,0,INVALID,111.061,VALID,0.112112,VALID,21.9797,VALID,333,VALID,0,
2014-04-16, 02:31:05,VALID,1010.02,VALID,0,INVALID,111.077,VALID,0,VALID,21.9992,VALID,333,VALID,0,
2014-04-16, 02:32:05,VALID,1010,VALID,0,INVALID,111.069,VALID,0,VALID,21.9992,VALID,333,VALID,0,
2014-04-16, 02:33:05,VALID,1009.96,VALID,0,INVALID,111.039,VALID,0,VALID,21.9992,VALID,333,VALID,0,
2014-04-16, 02:34:05,VALID,1009.96,VALID,0,INVALID,111.069,VALID,0,VALID,22.0187,VALID,333,VALID,0,
2014-04-16, 02:35:05,VALID,1009.97,VALID,0,INVALID,111.092,VALID,0,VALID,22.0382,VALID,333,VALID,0,
2014-04-16, 02:36:05,VALID,1009.93,VALID,0,INVALID,111.077,VALID,0,VALID,22.0576,VALID,333,VALID,0,
2014-04-16, 02:37:05,VALID,1009.92,VALID,0,INVALID,111.054,VALID,0,VALID,22.0576,VALID,333,VALID,0,
2014-04-16, 02:38:05,VALID,1009.92,VALID,0,INVALID,111.107,VALID,0,VALID,22.0983,VALID,333,VALID,0,
2014-04-16, 02:39:05,VALID,1009.93,VALID,0,INVALID,111.069,VALID,0,VALID,22.1161,VALID,333,VALID,0,
2014-04-16, 02:40:05,VALID,1009.88,VALID,0,INVALID,111.092,VALID,0,VALID,22.155,VALID,333,VALID,0,
2014-04-16, 02:41:05,VALID,1009.88,VALID,0,INVALID,111.069,VALID,0,VALID,22.1745,VALID,333,VALID,0,
2014-04-16, 02:42:05,VALID,1009.89,VALID,0,INVALID,111.092,VALID,0,VALID,22.1745,VALID,333,VALID,0,
2014-04-16, 02:43:05,VALID,1009.91,VALID,0,INVALID,111.145,VALID,0,VALID,22.1745,VALID,333,VALID,0,
2014-04-16, 02:44:05,VALID,1009.88,VALID,0,INVALID,111.13,VALID,0,VALID,22.194,VALID,333,VALID,0,
2014-04-16, 02:45:05,VALID,1009.88,VALID,0,INVALID,111.122,VALID,0,VALID,22.1745,VALID,333,VALID,0,
2014-04-16, 02:46:05,VALID,1009.88,VALID,0,INVALID,111.13,VALID,0,VALID,22.1339,VALID,333,VALID,0,
2014-04-16, 02:47:05,VALID,1009.88,VALID,0,INVALID,111.115,VALID,0,VALID,22.1745,VALID,333,VALID,0,
2014-04-16, 02:48:05,VALID,1009.87,VALID,0,INVALID,111.1,VALID,0,VALID,22.1745,VALID,333,VALID,0,
2014-04-16, 02:49:05,VALID,1009.83,VALID,0,INVALID,111.061,VALID,0,VALID,22.155,VALID,333,VALID,0,
2014-04-16, 02:50:05,VALID,1009.84,VALID,0,INVALID,111.092,VALID,0,VALID,22.155,VALID,333,VALID,0,
2014-04-16, 02:51:05,VALID,1009.85,VALID,0,INVALID,111.046,VALID,0,VALID,22.155,VALID,333,VALID,0,
2014-04-16, 02:52:05,VALID,1009.83,VALID,0,INVALID,111.031,VALID,0,VALID,22.155,VALID,333,VALID,0,
2014-04-16, 02:53:05,VALID,1009.88,VALID,0,INVALID,111.039,VALID,0,VALID,22.1355,VALID,333,VALID,0,
2014-04-16, 02:54:05,VALID,1009.85,VALID,0,INVALID,111.031,VALID,0.112112,VALID,22.1355,VALID,333,VALID,0,
2014-04-16, 02:55:05,VALID,1009.83,VALID,0,INVALID,111.016,VALID,0.112112,VALID,22.1355,VALID,333,VALID,0,
2014-04-16, 02:56:05,VALID,1009.84,VALID,0,INVALID,111.008,VALID,0,VALID,22.1161,VALID,333,VALID,0,
2014-04-16, 02:57:05,VALID,1009.84,VALID,0,INVALID,111.016,VALID,0,VALID,22.0966,VALID,333,VALID,0,
2014-04-16, 02:58:05,VALID,1009.82,VALID,0,INVALID,110.993,VALID,0,VALID,22.0966,VALID,333,VALID,0,
2014-04-16, 02:59:05,VALID,1009.84,VALID,0,INVALID,110.985,VALID,0,VALID,22.1177,VALID,333,VALID,0,
2014-04-16, 03:00:05,VALID,1009.81,VALID,0,INVALID,111.023,VALID,0,VALID,22.0966,VALID,333,VALID,0,
2014-04-16, 03:01:05,VALID,1009.83,VALID,0,INVALID,111.008,VALID,0,VALID,22.0966,VALID,333,VALID,0,
2014-04-16, 03:02:05,VALID,1009.83,VALID,0,INVALID,111.008,VALID,0,VALID,22.0966,VALID,333,VALID,0,
2014-04-16, 03:03:05,VALID,1009.82,VALID,0,INVALID,111.023,VALID,0,VALID,22.0771,VALID,333,VALID,0,
2014-04-16, 03:04:05,VALID,1009.83,VALID,0,INVALID,111.016,VALID,0,VALID,22.0966,VALID,333,VALID,0,
2014-04-16, 03:05:05,VALID,1009.82,VALID,0,INVALID,111.016,VALID,0,VALID,22.0983,VALID,333,VALID,0,
2014-04-16, 03:06:05,VALID,1009.79,VALID,0,INVALID,111,VALID,0,VALID,22.0382,VALID,333,VALID,0,
2014-04-16, 03:07:05,VALID,1009.79,VALID,0,INVALID,110.978,VALID,0,VALID,21.9992,VALID,333,VALID,0,
2014-04-16, 03:08:05,VALID,1009.77,VALID,0,INVALID,110.894,VALID,0.112112,VALID,21.9586,VALID,333,VALID,0,
2014-04-16, 03:09:05,VALID,1009.76,VALID,0,INVALID,110.878,VALID,0,VALID,21.9408,VALID,333,VALID,0,
2014-04-16, 03:10:05,VALID,1009.73,VALID,0,INVALID,110.886,VALID,0,VALID,21.9213,VALID,333,VALID,0,
2014-04-16, 03:11:05,VALID,1009.75,VALID,0,INVALID,110.901,VALID,0,VALID,21.8824,VALID,333,VALID,0,
2014-04-16, 03:12:05,VALID,1009.72,VALID,0,INVALID,110.924,VALID,0,VALID,21.8629,VALID,333,VALID,0,
2014-04-16, 03:13:05,VALID,1009.71,VALID,0,INVALID,110.947,VALID,0,VALID,21.8434,VALID,333,VALID,0,
2014-04-16, 03:14:05,VALID,1009.68,VALID,0,INVALID,110.97,VALID,0,VALID,21.8239,VALID,333,VALID,0,
2014-04-16, 03:15:05,VALID,1009.67,VALID,0,INVALID,110.985,VALID,0,VALID,21.8045,VALID,333,VALID,0,
2014-04-16, 03:16:05,VALID,1009.7,VALID,0,INVALID,110.978,VALID,0,VALID,21.785,VALID,333,VALID,0,
2014-04-16, 03:17:05,VALID,1009.69,VALID,0,INVALID,111.016,VALID,0,VALID,21.746,VALID,333,VALID,0,
2014-04-16, 03:18:05,VALID,1009.73,VALID,0,INVALID,111.031,VALID,0,VALID,21.7266,VALID,333,VALID,0,
2014-04-16, 03:19:05,VALID,1009.71,VALID,0,INVALID,111.023,VALID,0,VALID,21.7071,VALID,333,VALID,0,
2014-04-16, 03:20:05,VALID,1009.73,VALID,0,INVALID,111.031,VALID,0,VALID,21.6681,VALID,333,VALID,0,
2014-04-16, 03:21:05,VALID,1009.69,VALID,0,INVALID,111.054,VALID,0,VALID,21.6681,VALID,333,VALID,0,
2014-04-16, 03:22:05,VALID,1009.69,VALID,0,INVALID,111.054,VALID,0,VALID,21.6487,VALID,333,VALID,0,
2014-04-16, 03:23:05,VALID,1009.68,VALID,0,INVALID,111.054,VALID,0,VALID,21.6487,VALID,333,VALID,0,
2014-04-16, 03:24:05,VALID,1009.66,VALID,0,INVALID,111.077,VALID,0,VALID,21.6681,VALID,333,VALID,0,
2014-04-16, 03:25:05,VALID,1009.66,VALID,0,INVALID,111.069,VALID,0,VALID,21.6876,VALID,333,VALID,0,
2014-04-16, 03:26:05,VALID,1009.66,VALID,0,INVALID,111.168,VALID,0,VALID,21.7071,VALID,333,VALID,0,
2014-04-16, 03:27:05,VALID,1009.65,VALID,0,INVALID,111.138,VALID,0,VALID,21.7266,VALID,333,VALID,0,
2014-04-16, 03:28:05,VALID,1009.65,VALID,0,INVALID,111.145,VALID,0,VALID,21.7071,VALID,333,VALID,0,
2014-04-16, 03:29:05,VALID,1009.63,VALID,0,INVALID,111.13,VALID,0,VALID,21.746,VALID,333,VALID,0,
2014-04-16, 03:30:05,VALID,1009.61,VALID,0,INVALID,111.138,VALID,0,VALID,21.746,VALID,333,VALID,0,
2014-04-16, 03:31:05,VALID,1009.61,VALID,0,INVALID,111.183,VALID,0,VALID,21.7266,VALID,333,VALID,0,
2014-04-16, 03:32:05,VALID,1009.62,VALID,0,INVALID,111.145,VALID,0,VALID,21.7071,VALID,333,VALID,0,
2014-04-16, 03:33:05,VALID,1009.59,VALID,0,INVALID,111.138,VALID,0.112112,VALID,21.7655,VALID,333,VALID,0,
2014-04-16, 03:34:05,VALID,1009.58,VALID,0,INVALID,111.191,VALID,0,VALID,21.746,VALID,333,VALID,0,
2014-04-16, 03:35:05,VALID,1009.58,VALID,0,INVALID,111.168,VALID,0.112112,VALID,21.7444,VALID,333,VALID,0,
2014-04-16, 03:36:05,VALID,1009.57,VALID,0,INVALID,111.168,VALID,0,VALID,21.746,VALID,333,VALID,0,
2014-04-16, 03:37:05,VALID,1009.58,VALID,0,INVALID,111.115,VALID,0,VALID,21.746,VALID,333,VALID,0,
2014-04-16, 03:38:05,VALID,1009.56,VALID,0,INVALID,111.153,VALID,0,VALID,21.7672,VALID,333,VALID,0,
2014-04-16, 03:39:05,VALID,1009.56,VALID,0,INVALID,111.191,VALID,0,VALID,21.7266,VALID,333,VALID,0,
2014-04-16, 03:40:05,VALID,1009.53,VALID,0,INVALID,111.176,VALID,0,VALID,21.6876,VALID,333,VALID,0,
2014-04-16, 03:41:05,VALID,1009.55,VALID,0,INVALID,111.183,VALID,0,VALID,21.7071,VALID,333,VALID,0,
2014-04-16, 03:42:05,VALID,1009.55,VALID,0,INVALID,111.138,VALID,0,VALID,21.7266,VALID,333,VALID,0,
2014-04-16, 03:43:05,VALID,1009.54,VALID,0,INVALID,111.153,VALID,0,VALID,21.746,VALID,333,VALID,0,
2014-04-16, 03:44:05,VALID,1009.55,VALID,0,INVALID,111.145,VALID,0,VALID,21.7249,VALID,333,VALID,0,
2014-04-16, 03:45:05,VALID,1009.56,VALID,0,INVALID,111.214,VALID,0,VALID,21.7266,VALID,333,VALID,0,
2014-04-16, 03:46:05,VALID,1009.58,VALID,0,INVALID,111.199,VALID,0,VALID,21.6876,VALID,333,VALID,0,
2014-04-16, 03:47:05,VALID,1009.57,VALID,0,INVALID,111.237,VALID,0,VALID,21.6681,VALID,333,VALID,0,
2014-04-16, 03:48:05,VALID,1009.59,VALID,0,INVALID,111.222,VALID,0,VALID,21.6292,VALID,333,VALID,0,
2014-04-16, 03:49:05,VALID,1009.57,VALID,0,INVALID,111.199,VALID,0,VALID,21.6292,VALID,333,VALID,0,
2014-04-16, 03:50:05,VALID,1009.56,VALID,0,INVALID,111.222,VALID,0,VALID,21.6292,VALID,333,VALID,0,
2014-04-16, 03:51:05,VALID,1009.57,VALID,0,INVALID,111.191,VALID,0,VALID,21.6292,VALID,333,VALID,0,
2014-04-16, 03:52:05,VALID,1009.54,VALID,0,INVALID,111.153,VALID,0,VALID,21.6487,VALID,333,VALID,0,
2014-04-16, 03:53:05,VALID,1009.55,VALID,0,INVALID,111.161,VALID,0,VALID,21.6681,VALID,333,VALID,0,